Keahole Point, HI

5:45 AM HST on June 24, 2018 (GMT -1000)
Kona International At Keahole

Weather History for PHKO - June, 2018

Change the Weather History Date:

Wednesday, June 13, 2018

  Actual Average Record
Temperature  
Mean Temperature 78 °F -  
Max Temperature 84 °F 81 °F 91 °F (1986)
Min Temperature 73 °F 72 °F 69 °F (1983)
Cooling Degree Days 14    
Growing Degree Days 28 (Base 50)    
Moisture  
Dew Point 66 °F    
Average Humidity 62    
Maximum Humidity 71    
Minimum Humidity 49    
Precipitation  
Precipitation 0.00 in - - ()
Sea Level Pressure  
Sea Level Pressure 29.97 in    
Wind  
Wind Speed 9 mph (WSW)    
Max Wind Speed 12 mph    
Max Gust Speed -    
Visibility 10 miles    
Events      
Averages and records for this station are not official NWS values.
T = Trace of Precipitation, MM = Missing Value Source: NWS Daily Summary

Daily Weather History Graph

Daily Weather History Graph

Search for Another Location

Airport or City:

Astronomy

Jun. 13, 2018 Rise Set
Actual Time 5:44 AM HST 7:03 PM HST
Civil Twilight 5:20 AM HST 7:28 PM HST
Nautical Twilight 4:51 AM HST 7:57 PM HST
Astronomical Twilight 4:21 AM HST 8:27 PM HST
Moon 5:47 AM HST (6/13) 7:18 PM HST (6/13)
Length of Visible Light 14h 07m
Length of Day
13h 18m
New Moon, 0% of the Moon is Illuminated
Jun 13
New Moon
Jun 20
First Quarter
Jun 27
Full
Jul 5
Last Quarter
Jul 12
New

Hourly Weather History & Observations

Time (HST) Temp. Heat Index Dew Point Humidity Pressure Visibility Wind Dir Wind Speed Gust Speed Precip Events Conditions
12:53 AM 75.9 °F - 61.0 °F 60% 29.98 in 10.0 mi NE 11.5 mph - N/A   Clear
1:53 AM 75.9 °F - 62.1 °F 62% 29.96 in 10.0 mi NE 8.1 mph - N/A   Mostly Cloudy
2:53 AM 75.0 °F - 61.0 °F 62% 29.95 in 10.0 mi NE 10.4 mph - N/A   Scattered Clouds
3:53 AM 73.9 °F - 62.1 °F 66% 29.94 in 10.0 mi NNE 10.4 mph - N/A   Clear
4:53 AM 73.9 °F - 62.1 °F 66% 29.94 in 10.0 mi NNE 6.9 mph - N/A   Clear
5:53 AM 73.9 °F - 62.1 °F 66% 29.94 in 10.0 mi NE 6.9 mph - N/A   Scattered Clouds
6:53 AM 78.1 °F - 63.0 °F 60% 29.96 in 10.0 mi NE 4.6 mph - N/A   Partly Cloudy
7:53 AM 80.1 °F 81.9 °F 64.9 °F 60% 29.97 in 10.0 mi North 3.5 mph - N/A   Scattered Clouds
8:53 AM 81.0 °F 82.7 °F 64.9 °F 58% 29.97 in 10.0 mi West 6.9 mph - N/A   Partly Cloudy
9:53 AM 82.0 °F 84.1 °F 66.0 °F 58% 29.98 in 10.0 mi WSW 9.2 mph - N/A   Scattered Clouds
10:53 AM 82.0 °F 83.8 °F 64.9 °F 56% 29.98 in 10.0 mi WSW 9.2 mph - N/A   Partly Cloudy
11:53 AM 84.0 °F 86.5 °F 66.9 °F 56% 29.98 in 10.0 mi WSW 10.4 mph - N/A   Partly Cloudy
12:53 PM 84.0 °F 86.3 °F 66.0 °F 55% 29.96 in 10.0 mi WSW 10.4 mph - N/A   Scattered Clouds
1:53 PM 84.9 °F 86.1 °F 64.0 °F 49% 29.95 in 10.0 mi WSW 10.4 mph - N/A   Scattered Clouds
2:53 PM 82.9 °F 85.0 °F 66.0 °F 56% 29.95 in 10.0 mi WSW 9.2 mph - N/A   Scattered Clouds
3:53 PM 84.0 °F 86.5 °F 66.9 °F 56% 29.94 in 10.0 mi WSW 8.1 mph - N/A   Scattered Clouds
4:53 PM 82.9 °F 85.8 °F 68.0 °F 60% 29.94 in 10.0 mi West 9.2 mph - N/A   Partly Cloudy
5:53 PM 81.0 °F 84.4 °F 70.0 °F 69% 29.94 in 10.0 mi WSW 6.9 mph - N/A   Mostly Cloudy
6:53 PM 81.0 °F 84.1 °F 69.1 °F 67% 29.95 in 10.0 mi WSW 5.8 mph - N/A   Scattered Clouds
7:53 PM 80.1 °F 83.2 °F 70.0 °F 71% 29.98 in 6.0 mi South 5.8 mph - N/A   Haze
8:53 PM 80.1 °F 82.9 °F 69.1 °F 69% 29.99 in 10.0 mi SSE 5.8 mph - N/A   Haze
9:53 PM 80.1 °F 82.9 °F 69.1 °F 69% 30.00 in 10.0 mi South 5.8 mph - N/A   Haze
10:53 PM 79.0 °F - 68.0 °F 69% 30.02 in 10.0 mi SE 5.8 mph - N/A   Haze
11:53 PM 79.0 °F - 66.9 °F 66% 30.01 in 10.0 mi SE 6.9 mph - N/A   Haze